This is the latest recevied telemetry packets stored in our database for station/object DO5MF-5. If no packets are shown the sender has not sent any telemetry packets the latest 1 day(s).
Telemetry packets is used to share measurements like repeteater parameters, battery voltage, radiation readings (or any other measurements).
| Time | Uptime* | Car voltage* | Battery voltage* | Temperature* | Humidity* |
|---|---|---|---|---|---|
| 1836274781 | 89.49 Days | 12.41 Volt | 4.09 Volt | 23.09 Celsius | 34.3 % |
| 1836274180 | 89.49 Days | 12.42 Volt | 4.09 Volt | 23.44 Celsius | 33.88 % |
| 1778023745 | 151.2 Days | 11.77 Volt | 4.09 Volt | 12.37 Celsius | 51.78 % |
| 1778023144 | 151.2 Days | 11.76 Volt | 4.09 Volt | 12.45 Celsius | 51.93 % |
| 1778022543 | 151.2 Days | 11.81 Volt | 4.09 Volt | 12.49 Celsius | 52 % |
| 1778021942 | 151.2 Days | 11.8 Volt | 4.09 Volt | 12.54 Celsius | 52.05 % |
| 1778021341 | 151.2 Days | 11.77 Volt | 4.09 Volt | 12.61 Celsius | 52.17 % |
| 1778020740 | 151.2 Days | 11.78 Volt | 4.09 Volt | 12.67 Celsius | 52.23 % |
| 1778020139 | 151.2 Days | 11.78 Volt | 4.09 Volt | 12.72 Celsius | 52.34 % |
| 1778019538 | 151.2 Days | 11.73 Volt | 4.09 Volt | 12.81 Celsius | 52.42 % |
| 1778018937 | 151.2 Days | 11.82 Volt | 4.09 Volt | 12.85 Celsius | 52.49 % |
| 1778018336 | 151.2 Days | 11.83 Volt | 4.09 Volt | 12.93 Celsius | 52.57 % |
| 1778017735 | 151.2 Days | 11.82 Volt | 4.09 Volt | 12.99 Celsius | 52.69 % |
| 1778017134 | 151.2 Days | 11.82 Volt | 4.09 Volt | 13.05 Celsius | 52.77 % |
| 1778016533 | 151.2 Days | 11.82 Volt | 4.09 Volt | 13.13 Celsius | 52.83 % |
| 1778015932 | 151.2 Days | 11.78 Volt | 4.09 Volt | 13.25 Celsius | 52.85 % |
| 1778015331 | 151.2 Days | 11.83 Volt | 4.09 Volt | 13.34 Celsius | 52.87 % |
| 1778014730 | 151.2 Days | 11.74 Volt | 4.09 Volt | 13.46 Celsius | 52.96 % |
| 1778014129 | 151.2 Days | 11.76 Volt | 4.09 Volt | 13.55 Celsius | 53.07 % |
| 1778013528 | 151.2 Days | 11.73 Volt | 4.09 Volt | 13.65 Celsius | 53.16 % |
| 1778012927 | 151.2 Days | 11.82 Volt | 4.09 Volt | 13.76 Celsius | 53.22 % |
| 1778012326 | 151.2 Days | 11.79 Volt | 4.09 Volt | 13.89 Celsius | 53.27 % |
| 1778011725 | 151.2 Days | 11.79 Volt | 4.09 Volt | 14.03 Celsius | 53.29 % |
| 1778011124 | 151.2 Days | 11.84 Volt | 4.09 Volt | 14.17 Celsius | 53.33 % |
| 1778010523 | 151.2 Days | 11.84 Volt | 4.09 Volt | 14.32 Celsius | 53.41 % |
*Used Equation Coefficients:
Uptime: 0, 0.44082126, 0
Car voltage: 0, 0.00217391, 0
Battery voltage: 0, 0.00054348, 0
Temperature: 0, 0.01509662, -40
Humidity: 0, 0.01207729, 0
- The parameter names for the analog channels will be Value1, Value2, Value3 (up to Value5) if station has not sent a PARAM-packet that specifies the parameter names for each analog channel.
- Each analog value is a decimal number between 000 and 255 (according to APRS specifications). The receiver use the telemetry equation coefficientsto to restore the original sensor values. If no EQNS-packet with equation coefficients is sent we will show the values as is (this corresponds to the equation coefficients a=0, b=1 and c=0).
The sent equation coefficients is used in the equation: a * value2 + b * value + c. - The units for the analog values will not be shown if station has not sent a UNIT-packet specifying what unit's to use.
- The parameter names for the digital bits will be Bit1, Bit2, Bit3 (up to Bit8) if station has not sent a PARAM-packet that specifies the parameter names for each digital bit.
- All bit labels will be named "On" if station has not sent a UNIT-packet that specifies the label of each bit.
- A bit is considered to be On when the bit is 1 if station has not sent a BITS-packet that specifies another "Bit sense" (a BITS-packet specify the state of the bits that match the BIT labels)